Clinton-Sherman, OK

10:36 PM CDT on April 27, 2017 (GMT -0500)
Clinton-Sherman

Weather History for KCSM - April, 2013

Change the Weather History Date:

Tuesday, April 23, 2013

  Actual Average Record
Temperature  
Mean Temperature 38 °F -  
Max Temperature 43 °F 70 °F 91 °F (2006)
Min Temperature 32 °F 47 °F 32 °F (2013)
Degree Days  
Heating Degree Days 28    
Moisture  
Dew Point 30 °F    
Average Humidity 83    
Maximum Humidity 96    
Minimum Humidity 64    
Precipitation  
Precipitation 0.00 in - - ()
Sea Level Pressure  
Sea Level Pressure 30.12 in    
Wind  
Wind Speed 26 mph (North)    
Max Wind Speed 34 mph    
Max Gust Speed 43 mph    
Visibility 8 miles    
Events Rain , Snow    
Averages and records for this station are not official NWS values.
T = Trace of Precipitation, MM = Missing Value Source: NWS Daily Summary

Daily Weather History Graph

Daily Weather History Graph

Search for Another Location

Airport or City:

Trip Planner

Search our weather history database for the weather conditions in past years. The results will help you decide how hot, cold, wet, or windy it might be!

Date:

Astronomy

Apr. 23, 2013 Rise Set
Actual Time 6:54 AM CDT 8:16 PM CDT
Civil Twilight 6:27 AM CDT 8:43 PM CDT
Nautical Twilight 5:55 AM CDT 9:15 PM CDT
Astronomical Twilight 5:22 AM CDT 9:48 PM CDT
Moon 6:16 PM CDT (4/23) 5:18 AM CDT (4/23)
Length of Visible Light 14h 15m
Length of Day
13h 22m
Waxing Gibbous, 94% of the Moon is Illuminated
Apr 23
Waxing Gibbous
Apr 25
Full
May 2
Last Quarter
May 9
New
May 17
First Quarter

Hourly Weather History & Observations

Time (CDT) Temp. Windchill Dew Point Humidity Pressure Visibility Wind Dir Wind Speed Gust Speed Precip Events Conditions
12:53 AM 43.0 °F 32.5 °F 39.9 °F 89% 29.91 in 10.0 mi North 29.9 mph 35.7 mph N/A   Overcast
1:53 AM 39.9 °F 29.5 °F 37.0 °F 89% 29.95 in 10.0 mi NNW 24.2 mph 39.1 mph N/A   Overcast
2:53 AM 37.9 °F 25.9 °F 36.0 °F 93% 29.94 in 3.0 mi North 28.8 mph 38.0 mph 0.00 in Snow Light Snow
3:53 AM 36.0 °F 23.7 °F 34.0 °F 93% 29.95 in 4.0 mi North 26.5 mph 36.8 mph 0.00 in Snow Light Snow
5:53 AM 34.0 °F 21.0 °F 33.1 °F 96% 30.00 in 3.0 mi North 26.5 mph 35.7 mph 0.00 in Snow Light Snow
6:27 AM 33.8 °F 19.2 °F 32.0 °F 93% 30.02 in 7.0 mi North 34.5 mph 42.6 mph 0.00 in Snow Light Snow
6:34 AM 33.8 °F 20.8 °F 32.0 °F 93% 30.03 in 7.0 mi North 26.5 mph 42.6 mph 0.00 in Rain Light Freezing Rain
6:39 AM 33.8 °F 21.6 °F 32.0 °F 93% 30.04 in 6.0 mi North 23.0 mph 38.0 mph 0.00 in Snow Light Snow
6:53 AM 34.0 °F 19.9 °F 30.9 °F 89% 30.02 in 7.0 mi North 32.2 mph 42.6 mph 0.00 in   Overcast
7:08 AM 33.8 °F 20.1 °F 30.2 °F 87% 30.04 in 10.0 mi North 29.9 mph 38.0 mph 0.00 in   Overcast
7:53 AM 34.0 °F 20.3 °F 30.9 °F 89% 30.06 in 7.0 mi North 29.9 mph 38.0 mph 0.00 in   Overcast
8:53 AM 33.1 °F 20.1 °F 30.9 °F 92% 30.09 in 6.0 mi North 25.3 mph 36.8 mph 0.00 in Rain Light Rain
9:53 AM 34.0 °F 21.8 °F 32.0 °F 92% 30.12 in 3.0 mi North 23.0 mph 33.4 mph 0.00 in Snow Light Snow
10:09 AM 33.8 °F 21.0 °F 32.0 °F 93% 30.13 in 2.5 mi North 25.3 mph 36.8 mph 0.00 in Snow Light Snow
10:19 AM 33.8 °F 21.3 °F 32.0 °F 93% 30.14 in 3.0 mi North 24.2 mph 34.5 mph 0.00 in Snow Light Snow
10:28 AM 33.8 °F 20.5 °F 32.0 °F 93% 30.14 in 5.0 mi North 27.6 mph 33.4 mph 0.00 in Rain Light Freezing Rain
10:39 AM 33.8 °F 21.3 °F 30.2 °F 87% 30.15 in 5.0 mi North 24.2 mph 36.8 mph 0.00 in Rain Light Freezing Rain
10:53 AM 34.0 °F 21.0 °F 32.0 °F 92% 30.15 in 7.0 mi North 26.5 mph 33.4 mph 0.00 in Rain Light Rain
11:23 AM 33.8 °F 20.3 °F 30.2 °F 87% 30.16 in 10.0 mi North 28.8 mph 36.8 mph 0.00 in   Overcast
11:53 AM 35.1 °F - 30.0 °F 82% 30.17 in 10.0 mi North - - 0.00 in   Overcast
12:53 PM 36.0 °F 23.9 °F 30.0 °F 79% 30.17 in 10.0 mi North 25.3 mph 33.4 mph N/A   Overcast
1:03 PM 37.4 °F 25.6 °F 30.2 °F 75% 30.16 in 10.0 mi North 26.5 mph 33.4 mph N/A   Overcast
1:53 PM 37.0 °F 25.6 °F 30.0 °F 76% 30.17 in 10.0 mi North 24.2 mph 34.5 mph N/A   Overcast
2:42 PM 35.6 °F 24.0 °F 28.4 °F 75% 30.14 in 10.0 mi North 23.0 mph 33.4 mph N/A   Overcast
2:51 PM 37.4 °F 25.2 °F 30.2 °F 75% 30.14 in 10.0 mi North 28.8 mph 34.5 mph N/A   Overcast
2:53 PM 37.0 °F 25.1 °F 28.9 °F 73% 30.16 in 10.0 mi North 26.5 mph 36.8 mph N/A   Overcast
3:53 PM 37.0 °F 25.1 °F 28.9 °F 73% 30.17 in 10.0 mi North 26.5 mph 34.5 mph N/A   Overcast
4:53 PM 37.0 °F 25.9 °F 28.9 °F 73% 30.17 in 10.0 mi North 23.0 mph 32.2 mph N/A   Overcast
5:53 PM 35.1 °F 23.3 °F 28.0 °F 76% 30.19 in 10.0 mi North 23.0 mph 29.9 mph N/A   Overcast
6:53 PM 35.1 °F 24.8 °F 27.0 °F 72% 30.21 in 10.0 mi North 17.3 mph 27.6 mph N/A   Overcast
7:53 PM 34.0 °F 23.8 °F 26.1 °F 73% 30.23 in 10.0 mi North 16.1 mph 27.6 mph N/A   Overcast
8:53 PM 34.0 °F 22.7 °F 25.0 °F 70% 30.26 in 10.0 mi North 19.6 mph 26.5 mph N/A   Overcast
9:53 PM 32.0 °F 23.0 °F 24.1 °F 73% 30.29 in 10.0 mi North 11.5 mph - N/A   Clear
10:53 PM 34.0 °F 23.8 °F 23.0 °F 64% 30.33 in 10.0 mi NNW 16.1 mph 21.9 mph N/A   Clear
11:53 PM 34.0 °F 22.7 °F 25.0 °F 70% 30.32 in 10.0 mi NNW 19.6 mph 26.5 mph N/A   Overcast